EHI
0 0 0 0 0 0 0 0 0 0 0 0 0 0 0 0 0 0 0 0 0 1 3 10 20 27 25 25 23 20 17 13 8 2 0 0 0 0 0 0 0 0 0 0 0 0 0 0 0
0 0 0 0 0 0 0 0 0 0 0 0 0 0 0 0 0 0 0 0 1 1 3 9 21 27 27 25 23 20 15 11 7 3 0 0 0 0 0 0 0 0 0 0 0 0 0 0 0
0 0 0 0 0 0 0 0 0 0 0 0 0 0 0 0 0 0 0 1 2 2 3 9 21 27 26 24 22 18 13 10 7 4 2 0 0 0 0 0 0 0 0 0 0 0 0 0 0
0 0 0 0 0 0 0 0 0 0 0 0 0 0 0 0 0 0 0 1 3 3 3 9 20 25 24 22 20 16 13 10 8 6 5 3 2 2 1 0 0 0 0 0 0 0 0 0 0
0 0 0 0 0 0 0 0 0 0 0 0 0 0 0 0 0 1 1 2 3 3 4 10 18 22 22 20 18 15 13 11 9 8 7 6 4 3 1 0 0 0 0 0 0 0 0 0 0
0 0 0 0 0 0 0 0 0 0 0 0 0 0 0 0 0 0 1 2 3 3 6 10 14 17 17 16 15 13 12 11 9 8 7 6 5 3 1 0 0 0 0 0 0 0 0 0 0
0 0 0 0 0 0 0 0 0 0 0 0 0 0 0 0 0 0 1 3 2 3 6 8 9 9 9 10 10 9 9 8 7 6 5 4 3 1 0 0 0 0 0 0 0 0 0 0 0
0 0 0 0 0 0 0 0 0 0 0 0 0 0 0 0 0 1 2 3 2 2 3 4 3 2 2 3 4 4 5 5 4 4 3 2 1 0 0 0 0 0 0 0 0 0 0 0 0
0 0 0 0 0 0 0 0 0 0 0 0 0 0 0 0 1 3 4 2 1 0 1 1 1 0 1 1 1 1 2 2 2 2 1 1 0 0 0 0 0 0 0 0 0 0 0 0 0
0 0 0 0 0 0 0 0 0 0 0 0 0 0 0 0 1 3 3 1 0 0 0 0 0 1 2 2 1 0 1 1 1 1 0 0 0 0 0 0 0 0 0 0 0 0 0 0 0
0 0 0 0 0 0 0 0 0 0 0 0 0 0 0 0 0 1 1 0 0 0 0 0 0 1 2 2 1 0 0 1 1 0 0 0 0 0 0 0 0 0 0 0 0 0 0 0 0
0 0 0 0 0 0 0 0 0 0 0 0 0 0 0 0 0 0 0 0 0 0 0 1 1 1 1 1 1 0 0 1 1 0 0 0 0 0 0 0 0 0 0 0 0 0 0 0 0
0 0 0 0 0 0 0 0 0 0 0 0 0 0 0 0 0 0 0 0 0 0 0 1 2 2 1 1 0 0 0 0 0 0 0 0 0 0 0 0 0 0 0 0 0 0 0 0 0
0 0 0 0 0 0 0 0 0 0 0 0 0 0 0 0 0 0 0 0 0 0 0 0 1 2 2 1 0 0 0 0 0 0 0 0 0 0 0 0 0 0 0 0 0 0 0 0 0
0 0 0 0 0 0 0 0 0 0 0 0 0 0 0 0 0 0 0 0 0 0 0 0 1 2 2 1 0 0 0 0 0 0 0 0 0 0 0 0 0 0 0 0 0 0 0 0 0
0 0 0 0 0 0 0 0 0 0 0 0 0 0 0 0 0 0 0 0 0 0 0 0 1 2 2 1 0 0 0 0 0 0 0 0 0 0 0 0 0 0 0 0 0 0 0 0 0
0 0 0 0 0 0 0 0 0 0 0 0 0 0 0 0 0 0 0 0 0 0 0 0 0 1 1 1 0 0 0 0 0 0 0 0 0 0 0 0 0 0 0 0 0 0 0 0 0
0 0 0 0 0 0 0 0 0 0 0 0 0 0 0 0 0 0 0 0 0 0 0 0 0 0 0 0 0 0 0 0 0 0 0 0 0 0 0 0 0 0 0 0 0 0 0 0 0
0 0 0 0 0 0 0 0 0 0 0 0 0 0 0 0 0 0 0 0 0 0 0 0 0 0 0 0 0 0 0 0 0 0 0 0 0 0 0 0 0 0 0 0 0 0 0 0 0
0 0 0 0 0 0 0 0 0 0 0 0 0 0 0 0 0 0 0 0 0 0 0 0 0 0 0 0 0 1 1 1 0 0 0 0 0 0 0 0 0 0 0 0 0 0 0 0 0
0 0 0 0 0 0 0 0 0 0 0 0 0 0 0 0 0 0 0 0 0 0 0 0 0 0 0 0 0 1 2 1 0 0 0 0 0 0 0 0 0 0 0 0 0 0 0 0 0
0 0 0 0 0 0 0 0 0 0 0 0 0 0 0 0 0 0 0 0 0 0 0 0 0 0 0 0 0 1 1 1 0 0 0 0 0 0 0 0 0 0 0 0 0 0 0 0 0
0 0 0 0 0 0 0 0 0 0 0 0 0 0 0 0 0 0 0 0 0 0 0 0 0 0 0 0 0 0 0 0 0 0 0 0 0 0 0 0 0 0 0 0 0 0 0 0 0
0 0 0 0 0 0 0 0 0 0 0 0 0 0 0 0 0 0 0 0 0 0 0 0 0 0 0 0 0 0 0 0 0 0 0 0 0 0 0 0 0 0 0 0 0 0 0 0 0
0 0 0 0 0 0 0 0 0 0 0 0 0 0 0 0 0 0 0 0 0 0 0 0 0 0 0 0 0 0 0 0 0 0 0 0 0 0 0 0 0 0 0 0 0 0 0 0 0
0 0 0 0 0 0 0 0 0 0 0 0 0 0 0 0 0 0 0 0 0 0 0 0 0 0 0 0 0 0 0 0 0 0 0 0 0 0 0 0 0 0 0 0 0 0 0 0 0
0 0 0 0 0 0 0 0 0 0 0 0 0 0 0 0 0 0 0 0 0 0 0 0 0 0 0 0 0 0 0 0 0 0 1 1 2 2 1 1 0 0 0 0 0 0 0 0 0
0 0 0 0 0 0 0 0 0 0 0 0 0 0 0 0 0 0 0 0 0 0 0 0 0 0 0 0 0 0 0 0 0 0 1 2 3 3 3 2 1 0 0 0 0 0 0 0 0
0 0 0 0 0 0 0 0 0 0 0 0 0 0 0 0 0 0 0 0 0 0 0 0 0 0 0 0 0 0 0 0 0 0 1 2 3 3 3 2 1 0 0 0 0 0 0 0 0
0 0 0 0 0 0 0 0 0 0 0 0 0 0 0 0 0 0 0 0 0 0 0 0 0 0 0 0 0 0 0 0 0 0 1 2 3 3 2 1 0 0 0 0 0 0 0 0 0
Wind_Speed
3 2 2 3 5 3 4 6 4 2 1 1 2 6 8 5 4 5 2 8 11 11 9 11 13 14 14 14 13 13 12 12 12 12 12 11 11 11 10 10 10 10 10 10 9 9 9 9 9
1 1 3 4 4 2 6 5 5 5 4 3 3 5 6 4 2 6 5 8 13 12 9 10 13 13 14 14 13 13 12 12 12 12 11 11 10 10 10 10 10 10 9 9 9 9 8 8 8
1 1 3 4 4 6 6 5 6 3 2 2 3 4 5 5 4 5 6 12 11 10 8 10 14 14 14 14 13 13 12 12 12 11 11 10 10 10 10 9 9 9 9 8 8 8 7 7 7
2 3 3 2 6 6 5 4 3 2 0 2 4 5 3 1 4 6 11 13 12 9 7 10 14 14 14 13 13 13 12 12 11 11 10 10 9 9 9 9 9 8 8 8 7 7 7 6 6
3 3 2 3 6 5 5 5 2 2 1 1 4 5 2 3 5 11 12 13 12 9 7 9 13 14 14 13 12 12 12 11 11 10 10 9 9 9 8 8 8 7 7 7 7 6 6 6 6
2 3 3 5 6 5 5 5 2 2 2 1 4 5 2 1 7 10 11 11 11 10 8 8 13 13 13 13 12 12 11 11 10 10 9 9 9 8 8 7 7 7 6 6 6 6 5 5 5
3 4 5 5 4 5 5 3 3 4 2 3 5 6 2 2 5 9 9 10 9 9 8 6 7 9 11 12 11 11 10 10 9 9 9 8 8 7 7 6 6 6 6 6 5 5 4 4 4
4 3 3 4 4 5 3 2 3 5 3 1 5 9 7 6 6 8 9 9 8 7 7 6 5 6 6 7 10 10 10 9 9 8 8 7 7 6 6 5 5 5 5 5 5 4 4 4 3
3 2 5 5 5 4 2 1 1 1 3 2 2 5 7 10 10 10 8 6 6 7 6 6 6 5 5 5 7 8 8 8 7 6 7 6 3 3 3 4 4 4 4 4 4 3 3 2 2
3 5 7 4 3 2 1 1 2 2 2 2 3 3 7 10 11 11 10 9 8 8 7 6 7 6 5 5 4 3 3 4 3 3 4 3 3 2 2 3 4 4 3 3 2 2 2 2 1
5 7 5 4 2 1 1 1 1 5 2 5 6 7 8 8 9 10 9 9 9 8 8 7 7 7 6 4 4 2 2 2 3 3 4 3 2 2 1 1 1 1 1 1 1 1 1 1 0
5 5 5 4 2 1 1 1 1 3 5 5 7 10 9 9 9 10 10 8 7 7 8 8 8 7 6 5 4 3 3 2 2 3 4 3 2 2 2 1 1 1 1 1 1 1 1 1 1
6 5 5 5 3 3 2 3 3 4 4 3 5 7 8 9 8 6 7 6 7 7 7 8 8 8 7 5 4 4 4 4 3 3 3 4 3 3 2 1 1 1 1 1 1 1 1 1 1
6 5 5 5 5 4 4 4 3 5 2 3 6 7 7 8 8 6 6 6 7 7 7 7 8 8 7 6 5 4 4 4 3 3 3 4 4 3 3 2 1 1 1 1 1 1 1 0 1
3 3 4 6 5 4 2 6 7 7 4 5 6 6 6 6 7 8 9 8 8 7 7 7 8 7 7 7 6 4 4 4 3 3 3 4 4 4 3 2 2 1 1 1 1 1 1 1 1
3 3 5 6 6 5 6 11 8 5 6 7 6 6 6 6 7 7 7 7 7 7 7 7 7 7 7 6 5 4 4 4 3 3 3 4 4 4 3 3 2 2 2 1 1 1 1 1 1
3 6 7 5 6 5 7 9 6 5 7 9 8 7 6 5 5 5 6 7 7 8 7 6 6 7 7 6 5 4 4 3 3 3 3 3 4 4 4 3 2 2 2 1 1 1 1 1 1
8 7 7 8 5 6 7 8 7 4 7 8 8 7 7 7 8 6 6 6 6 7 7 7 7 6 6 4 4 3 3 2 2 3 3 4 4 4 4 3 2 3 2 1 1 2 1 1 1
5 6 6 6 4 6 9 10 9 7 6 7 8 8 8 8 6 5 5 5 5 5 6 7 7 7 6 5 4 4 4 3 2 2 3 4 4 4 4 3 2 2 2 2 2 2 2 1 1
6 5 4 3 3 4 6 10 8 8 8 10 11 10 10 7 4 5 5 5 6 6 7 7 8 7 7 6 5 4 4 3 3 2 2 3 4 4 4 4 3 3 2 2 2 2 1 1 1
9 8 6 4 1 1 1 7 7 6 6 6 8 9 8 10 9 7 6 6 6 7 7 7 8 8 7 6 4 4 3 2 1 1 2 2 3 4 4 4 4 3 3 3 2 2 3 1 1
9 8 7 5 3 4 4 5 7 6 6 7 8 7 8 7 7 7 7 7 7 7 6 6 7 7 7 7 7 7 5 4 4 3 3 2 3 3 3 4 4 4 3 3 2 2 2 3 1
6 4 5 5 5 3 3 4 8 4 7 9 8 8 8 8 8 8 8 8 6 6 5 5 6 6 6 6 8 7 5 4 3 3 3 2 2 3 3 4 4 3 3 3 3 2 2 2 2
4 3 2 2 2 6 8 6 8 6 10 8 8 7 8 7 7 7 6 5 4 4 5 5 6 5 6 6 7 7 8 6 5 4 4 2 2 2 3 3 3 3 3 3 3 2 3 2 2
5 5 3 1 3 8 5 6 10 7 7 9 10 9 8 7 7 6 6 6 5 5 5 5 6 6 6 6 6 7 8 8 8 6 5 4 3 2 3 3 3 3 3 3 2 2 2 2 2
8 8 7 7 6 4 4 8 9 6 5 5 6 6 6 6 6 7 7 7 7 7 6 6 6 5 5 6 6 6 6 5 5 5 5 5 4 3 3 3 3 3 3 2 2 2 2 1 2
7 7 5 3 1 2 5 6 7 1 0 1 3 4 6 6 6 6 6 6 6 6 6 7 6 5 4 5 6 5 5 5 5 5 4 3 3 3 3 3 3 3 3 3 3 2 2 2 2
5 6 4 5 5 5 4 5 5 3 3 2 3 4 5 5 4 4 4 4 4 5 4 4 5 5 4 5 5 5 5 5 4 4 4 4 3 3 3 3 3 2 2 2 2 2 2 2 1
4 5 4 5 4 5 4 6 4 6 5 4 4 4 5 5 5 4 3 3 4 3 4 4 4 4 3 3 4 5 4 4 4 4 4 4 3 4 3 3 3 2 2 2 2 1 2 2 1
4 6 6 5 5 4 3 6 4 2 2 3 2 2 3 3 3 4 4 4 3 3 3 3 3 4 3 3 4 4 4 4 4 4 3 3 3 3 3 3 3 2 2 1 2 2 2 2 2
Wind_Direction
303 12 75 60 62 63 237 243 229 233 210 194 115 109 112 112 144 158 148 139 137 142 147 143 140 137 132 128 126 123 120 117 114 111 109 108 107 107 105 103 102 99 96 94 93 91 89 88 87
49 58 66 67 105 179 250 241 228 225 194 154 96 94 90 84 95 118 127 144 139 141 143 143 140 136 132 129 128 125 122 120 117 114 112 109 107 106 108 107 104 101 97 93 90 89 88 86 88
72 113 98 97 161 196 225 228 214 231 215 145 79 65 104 131 139 146 149 142 134 137 140 144 140 138 134 131 130 128 125 122 120 119 116 113 110 108 108 110 106 103 99 96 92 89 88 88 85
89 74 70 121 223 228 219 226 200 190 3 76 107 75 70 135 162 144 136 137 132 134 137 145 141 140 136 134 133 132 129 127 125 122 119 117 114 111 109 108 106 106 104 101 96 91 89 91 86
82 100 126 223 237 247 239 242 214 171 161 101 110 103 65 348 108 124 135 138 137 138 140 146 142 141 139 137 136 134 133 131 129 126 124 122 119 115 114 112 110 110 111 107 102 94 89 87 84
95 100 150 219 236 250 254 240 213 178 157 115 108 111 128 95 122 133 137 140 141 143 142 146 142 141 140 140 139 137 136 135 133 132 129 128 126 122 120 119 116 113 113 111 107 100 97 90 84
142 143 192 212 224 243 246 225 186 175 170 185 136 116 146 175 147 136 133 134 136 139 138 140 145 143 141 140 140 139 137 137 136 135 133 130 127 126 125 121 120 117 116 117 111 103 98 98 85
162 147 210 216 209 231 234 194 194 169 184 176 127 138 175 193 146 125 123 126 132 137 142 142 140 140 142 144 142 141 140 138 138 136 133 130 128 128 126 124 124 122 119 117 114 104 95 90 73
140 150 213 212 201 224 243 162 262 156 112 63 90 164 173 147 130 122 120 122 136 145 152 150 148 146 144 145 147 144 142 141 140 140 137 131 130 129 129 127 126 126 123 120 114 106 92 69 43
158 198 219 220 207 207 275 185 185 100 76 57 45 65 117 132 136 142 150 155 159 164 167 162 160 157 151 153 144 144 144 144 141 141 144 138 138 137 133 135 137 134 129 125 113 103 71 51 13
185 206 220 258 270 260 310 296 182 134 174 186 164 155 143 144 148 156 165 167 171 169 168 170 169 163 159 155 149 150 146 143 147 151 151 143 138 130 121 120 123 125 107 86 57 44 33 32 352
207 226 213 244 267 281 279 291 293 189 207 186 167 160 157 162 170 172 173 173 169 166 173 172 170 166 165 159 158 159 157 156 162 168 159 147 142 139 140 138 139 125 121 111 61 45 8 354 330
226 238 233 239 249 242 258 262 255 249 235 168 152 162 174 176 179 180 171 167 162 168 173 173 168 167 167 161 164 163 168 167 167 164 165 157 153 157 153 154 149 146 126 125 110 76 39 10 351
217 227 246 243 239 236 227 261 247 247 198 162 169 182 191 189 185 178 175 176 176 176 175 174 171 170 165 167 169 170 169 163 161 164 165 158 153 154 154 150 145 144 144 143 137 136 120 348 350
203 219 268 246 222 221 187 262 236 234 190 190 204 203 198 204 193 189 188 182 180 178 173 172 173 169 166 167 170 166 165 159 163 168 164 159 153 152 150 146 145 160 147 126 110 95 72 39 12
168 194 238 247 203 201 174 246 247 225 196 209 214 213 212 216 206 200 191 184 178 170 170 172 168 165 168 167 164 162 161 159 164 165 161 160 157 151 146 145 153 154 132 121 111 84 64 35 16
178 203 217 247 208 183 188 240 253 219 198 215 215 212 212 218 222 210 193 185 178 172 167 166 163 165 168 165 160 154 153 157 160 156 155 160 159 155 148 152 157 146 127 117 110 77 82 44 5
193 199 207 216 217 183 209 241 256 232 203 214 217 216 211 211 218 207 191 181 175 172 165 164 164 166 162 155 142 136 138 155 154 158 162 158 158 153 148 146 148 141 124 114 107 96 73 72 14
184 186 207 221 221 192 220 240 247 242 222 219 220 216 215 217 219 199 182 170 159 166 166 167 165 169 160 159 160 162 174 176 171 171 167 162 157 154 149 147 142 141 141 148 139 120 83 42 34
217 215 218 253 224 205 232 251 248 234 220 214 212 212 211 207 203 193 178 170 171 174 177 175 172 173 173 173 174 173 169 171 175 166 160 163 162 163 157 153 157 153 140 130 133 123 118 63 51
223 211 209 210 234 245 250 276 253 249 230 221 213 207 202 196 195 193 184 183 176 181 183 181 179 175 173 165 148 132 110 93 107 145 171 176 168 168 164 164 159 157 153 160 165 154 144 153 7
227 212 203 204 179 238 185 259 261 233 236 225 218 210 206 201 194 190 187 185 186 190 184 177 177 174 170 163 160 159 164 172 187 180 176 171 168 167 168 164 160 160 161 161 171 167 160 147 168
217 200 198 203 192 239 210 225 274 221 226 229 220 213 210 204 194 192 191 187 184 181 176 173 170 171 170 167 167 165 165 170 163 150 151 156 162 166 169 167 161 163 166 172 167 163 161 165 171
164 106 67 56 123 235 213 198 264 223 214 214 216 213 207 202 197 194 188 174 172 167 167 165 164 173 171 167 168 169 168 164 157 160 166 169 162 160 166 162 160 163 165 172 173 168 167 175 170
156 132 133 175 213 239 194 203 247 238 220 204 207 209 204 193 184 181 177 175 174 170 171 168 162 171 174 168 172 175 174 171 172 173 175 171 168 176 184 167 164 167 173 174 165 160 175 180 181
185 170 172 185 203 243 196 222 249 253 231 207 203 195 183 183 181 181 182 181 180 177 172 167 165 167 174 173 175 174 171 171 175 177 173 177 182 186 178 169 167 168 170 171 163 166 187 180 194
167 194 179 137 163 200 237 264 291 292 330 179 170 165 175 181 178 176 177 176 176 174 175 170 165 164 171 176 170 168 170 169 172 173 168 171 171 168 161 160 162 165 163 165 165 172 190 183 202
157 155 142 160 176 218 245 240 233 226 236 223 180 175 177 169 163 163 164 166 168 166 162 158 161 165 167 173 174 166 168 169 167 159 162 163 164 157 153 153 154 153 159 167 161 174 188 178 217
156 171 164 166 187 180 219 255 226 209 211 198 200 186 169 163 158 154 147 140 135 131 134 138 145 146 146 152 155 152 155 152 143 147 156 158 152 150 151 155 153 158 170 170 165 203 201 191 233
180 176 162 174 209 194 193 264 305 233 198 164 165 155 145 140 139 138 134 125 121 124 127 129 132 137 145 145 142 146 140 136 137 144 149 147 144 146 149 146 143 153 159 161 179 208 219 208 231